Terug naar catalogus

WORLDVIEW 2

ActiefWetenschapSSO
NORAD 35946·PAYLOAD·🇺🇸 United States

Gelanceerd Oct 8, 2009 vanaf Vandenberg Space Force Base

Loading…

Volgende Passages (komende 24 uur)

TLE

VersSource: Space-Track

Epoch: Sep 14, 2026, 13:56 UTC

1 35946U 09055A   26257.58116763  .00000069  00000-0  37337-4 0  9997
2 35946  98.4722 329.8025 0003554 329.3316  30.7663 14.37920019888492

Volg WORLDVIEW 2 in realtime met AllMySat

Download on the App Store